Temperature
19 19 19 19 18 18 19 20 20 20 21 22 22 21 20 19 20 19 18 18 18 18 18 18 18 18 18 18 18 18 18 18 19 19 18 18 18 18 18 18 18 18 18 18 18 18 18 19 19
19 19 19 19 18 19 19 20 20 21 22 22 22 21 20 19 19 18 18 18 18 18 18 18 18 18 18 18 18 18 18 18 18 18 18 18 18 18 18 18 18 18 18 18 18 18 18 18 19
19 19 19 18 19 19 20 20 20 22 23 23 21 21 20 19 19 18 18 18 18 18 18 18 18 18 18 18 18 18 18 18 18 18 18 18 18 18 18 18 18 18 18 18 18 18 18 18 18
19 19 19 18 20 20 20 20 20 22 23 22 21 20 19 19 19 19 18 18 18 18 18 18 18 18 18 18 18 18 18 18 18 18 18 18 18 18 18 18 18 18 18 18 18 18 18 18 18
19 19 18 19 20 20 20 21 21 22 22 22 20 19 18 19 19 19 18 18 18 18 18 18 18 18 18 18 18 18 18 17 17 17 17 17 17 17 17 17 17 17 17 18 18 18 18 18 18
20 18 18 19 20 20 20 21 22 22 22 21 20 19 18 19 19 19 18 18 19 18 18 18 18 18 18 18 17 17 17 17 17 17 17 17 17 17 17 17 17 17 17 17 17 17 17 18 18
19 18 19 19 20 20 21 22 22 21 22 22 21 18 18 18 19 19 19 19 19 18 18 18 18 17 17 17 17 17 17 17 16 16 16 16 16 16 16 16 16 16 16 17 17 17 17 17 17
20 18 19 19 20 20 21 22 23 22 22 22 21 19 18 19 19 19 19 19 18 18 18 18 18 18 17 17 17 17 17 16 16 16 16 16 16 16 16 16 16 16 16 16 16 17 17 17 17
20 18 18 19 20 20 21 21 22 23 22 22 21 21 20 19 19 19 19 18 18 18 18 18 18 17 17 17 17 17 16 16 16 16 16 15 15 15 15 15 15 15 15 16 16 16 16 17 17
19 18 19 20 20 20 21 21 22 22 21 21 21 21 20 19 19 19 19 19 18 18 18 18 18 17 17 17 17 16 16 16 16 16 15 15 15 15 15 15 15 15 15 15 15 16 16 16 16
19 19 20 20 21 21 21 22 22 21 20 20 20 20 20 19 19 19 19 19 19 18 18 18 17 17 17 17 17 16 16 16 16 15 15 15 15 15 15 15 15 15 15 15 15 15 16 16 16
19 20 20 21 21 21 21 22 22 22 22 22 22 21 20 20 20 20 19 19 19 19 18 18 18 17 17 17 16 16 16 16 15 15 15 15 15 15 15 15 15 15 15 15 15 15 15 15 16
19 20 21 21 21 21 22 21 22 22 22 22 21 21 20 20 20 20 20 19 19 19 18 18 18 17 17 17 16 16 16 16 15 15 15 15 15 15 14 14 14 14 15 15 15 15 15 15 15
19 20 20 20 20 21 21 21 22 22 22 21 21 21 21 20 20 20 20 20 19 19 18 18 18 17 17 17 16 16 15 15 15 15 15 15 14 14 14 14 14 14 14 14 14 15 15 15 15
20 19 19 20 20 21 21 21 21 22 22 21 21 21 21 21 21 21 20 20 19 19 18 18 17 17 17 16 16 16 15 15 15 15 14 14 14 14 14 14 14 14 14 14 14 14 14 15 15
19 19 19 20 20 21 21 20 21 22 21 21 21 21 21 21 21 21 20 20 20 19 18 18 17 17 16 16 16 15 15 15 15 14 14 14 14 14 14 14 14 14 14 14 14 14 14 14 15
18 18 19 20 20 20 20 20 20 22 21 21 21 21 21 21 21 21 20 20 20 19 18 18 17 17 16 16 15 15 15 15 14 14 14 14 14 14 14 14 14 14 14 14 14 14 14 14 15
18 18 19 19 20 20 20 19 20 21 21 21 21 21 21 21 21 21 20 20 20 19 18 18 17 17 16 16 15 15 15 14 14 14 14 14 14 13 13 13 13 13 13 13 14 14 14 14 14
19 19 19 19 20 20 20 19 20 20 21 20 20 21 21 21 21 20 20 20 19 19 18 18 17 16 16 16 15 15 15 14 14 14 14 14 13 13 13 13 13 13 13 13 13 13 14 14 14
19 19 19 20 21 20 19 20 20 20 20 21 21 21 21 21 20 20 20 20 19 19 18 18 17 16 16 16 15 15 14 14 14 14 14 13 13 13 13 13 13 13 13 13 13 13 13 14 14
19 19 19 20 21 21 20 20 20 20 21 21 21 22 21 21 21 20 20 20 19 19 18 18 17 16 16 15 15 15 14 14 14 14 14 13 13 13 13 13 13 13 13 13 13 13 13 13 13
19 20 21 21 20 19 20 19 20 20 20 20 21 21 21 21 21 21 20 20 19 19 18 18 17 16 16 15 15 15 14 14 14 14 14 13 13 13 13 13 13 13 13 13 13 13 13 13 13
20 21 21 20 19 19 19 19 19 19 20 20 20 21 22 22 21 21 20 20 19 19 18 18 17 16 16 15 15 15 14 14 14 14 14 13 13 13 13 13 13 13 13 13 13 13 13 13 13
21 20 19 18 17 18 19 19 19 18 20 20 20 21 22 22 21 21 20 20 19 19 18 18 17 16 16 15 15 15 14 14 14 14 14 14 13 13 13 13 13 13 13 13 13 13 13 13 13
20 18 17 18 17 18 19 19 19 20 21 21 20 21 22 22 21 21 20 20 19 19 18 18 17 16 16 15 15 15 14 14 14 14 14 14 13 13 13 13 13 13 13 13 13 13 13 13 13
20 18 18 18 18 18 19 19 20 21 22 22 22 22 22 21 21 21 20 20 19 19 18 18 17 16 16 15 15 15 14 14 14 14 14 14 13 13 13 13 13 13 13 13 13 13 13 13 13
20 18 18 17 18 18 18 20 21 22 21 21 21 21 21 21 21 21 21 20 20 19 18 18 17 17 16 15 15 15 15 14 14 14 14 14 14 13 13 13 13 13 13 13 13 13 13 13 13
21 19 17 17 18 18 19 20 19 21 21 21 20 20 21 22 22 21 21 20 20 19 19 18 17 17 16 16 15 15 15 14 14 14 14 14 14 14 14 13 13 13 13 13 13 13 13 13 13
22 21 18 16 17 18 19 19 20 21 21 20 20 21 22 22 22 22 21 21 20 19 19 18 17 17 16 16 15 15 15 14 14 14 14 14 14 14 14 13 13 13 13 13 13 13 13 13 13
22 21 19 18 18 17 17 18 21 20 21 21 22 22 23 23 22 22 21 21 20 19 19 18 18 17 16 16 15 15 15 15 14 14 14 14 14 14 14 13 13 13 13 13 13 13 13 13 13
Wind_Speed
10 8 3 2 2 1 2 3 3 2 1 1 4 7 7 6 4 5 3 9 12 10 10 11 11 10 9 8 7 7 7 6 5 5 4 4 4 4 3 3 3 2 2 2 1 1 1 1 1
8 5 2 2 2 1 2 3 3 3 4 4 6 6 7 6 5 7 5 11 13 11 11 11 11 10 9 8 8 7 6 6 5 5 4 4 4 3 2 2 2 1 1 1 1 0 0 1 0
6 3 2 2 1 3 3 4 4 2 2 3 4 5 5 5 6 5 8 13 12 10 11 12 12 10 9 8 8 7 6 5 5 4 4 3 2 2 1 1 1 1 1 1 1 1 2 2 2
4 1 2 1 2 3 4 4 3 1 2 3 5 5 4 3 5 8 13 13 12 9 10 12 12 10 9 8 7 6 5 4 4 3 2 2 1 0 1 1 2 2 2 2 2 2 3 3 3
2 3 1 1 2 2 2 4 4 2 2 4 6 6 4 3 10 14 13 12 12 9 8 11 11 10 9 8 7 6 4 3 2 1 1 0 1 1 2 2 3 2 3 3 3 4 4 4 5
2 3 2 1 1 1 2 2 2 3 4 6 7 6 3 4 10 11 12 11 11 10 8 10 11 11 9 8 7 6 5 3 2 1 2 2 3 3 4 4 3 3 4 4 4 4 5 5 5
3 3 2 2 1 1 2 2 3 4 4 4 7 6 5 5 8 10 11 10 9 9 7 7 8 9 9 9 8 6 5 4 3 3 3 4 5 5 5 5 5 5 5 5 5 6 6 6 6
4 3 1 2 3 2 2 1 3 5 4 5 6 8 7 8 8 9 8 8 8 7 7 6 7 7 7 7 8 7 5 5 4 4 5 5 6 7 7 7 7 6 6 6 6 6 7 7 7
3 2 2 4 4 4 3 1 1 2 5 3 4 6 9 12 10 8 6 5 6 6 5 5 5 5 6 6 7 6 5 4 4 4 5 5 5 6 6 6 7 6 6 6 7 7 7 7 7
3 3 5 4 4 4 2 3 3 3 6 5 6 7 11 12 11 10 8 7 7 7 6 5 5 4 4 5 4 3 3 3 3 3 4 3 3 3 2 4 5 5 5 6 6 6 6 5 4
4 5 3 3 3 3 2 2 2 7 4 8 12 13 13 11 11 10 9 9 8 7 6 5 5 4 4 2 2 1 1 1 1 2 2 2 2 2 3 3 4 4 4 4 5 5 4 3 3
3 3 3 2 2 3 3 2 2 6 8 10 15 16 14 12 12 11 10 9 7 7 6 5 4 4 3 2 1 1 1 1 0 1 1 2 1 2 2 1 2 2 2 2 3 2 3 3 3
2 3 3 4 4 3 3 3 3 4 7 10 14 14 13 12 10 9 9 9 8 7 6 4 4 4 4 3 1 2 1 1 1 1 2 2 1 1 2 1 1 2 2 1 2 2 2 2 2
3 4 2 3 4 3 3 3 3 5 9 12 13 13 12 12 11 8 8 9 8 7 6 5 5 5 5 3 2 2 1 1 2 2 2 2 1 0 1 1 2 2 2 1 1 1 2 2 2
2 1 2 3 3 2 1 1 5 7 10 11 12 11 11 10 10 10 11 10 9 8 6 6 6 6 6 4 3 2 2 2 2 2 4 5 3 1 1 1 1 2 2 1 1 2 2 2 2
1 1 2 4 2 1 3 4 6 7 10 10 10 9 10 10 10 10 11 10 9 8 7 6 6 6 5 4 3 2 2 3 2 3 4 5 5 3 1 1 1 2 1 1 1 1 2 2 2
2 1 3 4 2 2 3 5 5 7 10 10 10 10 9 8 8 9 10 11 10 10 9 7 7 6 5 4 3 2 2 2 2 2 2 3 4 4 1 1 1 1 1 1 1 1 1 2 2
2 2 2 3 2 2 3 5 6 7 9 10 9 9 9 9 9 9 10 10 10 9 9 8 7 5 4 3 3 3 3 2 1 1 1 2 2 3 2 1 2 1 1 1 1 1 1 1 2
3 2 3 5 4 2 4 6 7 8 7 8 8 8 9 9 7 8 9 10 10 9 8 8 7 4 3 2 2 1 1 1 1 1 1 1 1 2 1 1 2 1 0 1 1 0 1 1 1
1 2 3 4 3 3 4 7 7 8 10 10 11 11 11 8 7 8 9 9 9 9 8 7 7 5 4 3 2 2 1 1 1 2 2 2 1 2 1 1 1 1 0 1 1 1 1 1 1
3 4 5 4 2 1 1 4 3 4 5 6 7 9 11 13 13 11 10 9 9 9 9 9 7 6 5 3 2 2 3 3 2 2 2 3 2 2 2 2 1 1 0 1 1 1 2 0 1
3 7 6 3 0 2 1 2 5 3 5 7 9 9 10 12 12 12 12 10 10 9 9 9 8 6 5 4 4 3 2 1 2 2 2 4 3 3 2 2 1 1 1 1 2 1 1 2 0
6 4 2 1 1 2 2 1 6 0 5 9 10 9 10 12 13 14 13 12 10 9 9 8 8 6 5 4 5 4 2 2 2 1 2 3 4 4 3 2 2 1 1 1 1 1 1 2 2
2 3 4 5 4 2 3 2 4 4 8 8 8 8 9 10 11 11 10 9 8 8 8 8 8 6 5 5 5 4 3 2 1 1 2 2 3 3 4 3 2 1 1 2 2 1 2 2 2
4 5 4 5 4 4 3 1 6 7 7 9 10 9 9 10 11 11 10 10 10 10 9 8 9 6 5 5 4 4 4 3 3 2 2 2 2 3 4 2 2 1 1 1 1 1 1 2 2
2 7 6 3 2 4 4 1 6 6 2 5 8 9 9 10 11 12 13 12 12 11 10 9 9 7 6 5 5 4 4 3 2 3 2 3 3 3 3 2 2 1 1 0 1 1 1 2 2
3 2 6 6 1 2 4 4 6 4 3 4 7 8 10 11 11 12 11 11 11 11 11 11 10 8 7 6 5 4 4 3 3 2 2 2 2 2 2 1 1 1 1 1 1 1 0 1 1
5 6 5 4 2 1 4 3 4 5 4 4 7 9 10 10 10 11 11 11 11 11 10 10 9 9 7 7 6 5 4 4 3 2 2 2 2 1 1 2 1 1 1 1 1 1 0 1 0
1 3 4 4 4 4 1 6 6 8 8 8 9 10 11 11 11 11 11 11 10 9 9 9 9 8 7 7 5 5 4 3 2 2 2 2 2 1 0 1 1 1 1 1 1 0 1 1 1
4 4 6 3 1 3 3 6 7 6 7 7 9 9 9 11 11 11 10 10 9 10 9 9 9 8 8 7 6 5 4 3 3 2 2 2 2 1 1 0 1 1 1 1 1 0 0 1 1
Wind_Direction
169 149 115 91 77 66 255 257 209 196 228 20 81 90 87 67 89 133 166 147 141 142 140 137 134 130 125 120 115 109 104 100 96 95 93 95 93 89 87 94 99 96 93 91 89 96 97 92 77
147 138 110 78 100 141 249 234 208 188 172 141 91 89 83 79 89 112 129 142 140 140 140 139 136 131 126 122 116 109 102 98 94 90 86 86 87 84 78 72 71 70 80 100 129 170 227 210 210
150 158 129 105 184 192 211 230 218 201 165 137 91 65 84 115 119 133 146 141 136 137 140 141 138 134 130 124 118 114 107 99 94 88 82 78 80 77 69 52 8 333 320 295 268 259 263 255 247
137 98 71 103 231 225 204 222 223 203 94 80 103 76 63 90 135 138 141 141 138 141 142 144 141 140 136 131 126 122 116 107 98 92 86 82 70 1 292 283 291 296 286 289 287 273 262 262 255
94 109 74 263 250 264 244 223 201 177 113 102 104 96 65 47 117 131 142 144 142 146 147 148 147 148 145 141 138 134 130 124 112 100 89 209 246 272 273 266 266 267 272 279 282 281 273 266 259
81 89 106 239 243 281 272 235 150 108 117 111 105 107 115 135 129 138 143 147 148 151 155 157 157 157 158 157 156 156 158 163 179 230 271 279 279 279 278 271 272 267 270 277 279 276 273 269 263
138 134 194 212 213 264 226 204 142 136 135 134 123 109 134 164 153 149 147 145 150 154 155 163 168 170 172 174 174 177 181 190 212 242 267 279 286 285 278 269 265 266 268 275 278 273 272 271 268
157 129 197 198 177 207 222 233 159 143 136 123 121 137 162 187 162 146 141 140 146 153 158 166 174 181 187 188 193 197 201 210 228 249 268 284 292 290 281 273 265 267 271 276 279 278 277 273 270
111 94 201 210 188 200 209 165 112 97 104 78 97 145 159 160 149 139 137 140 153 160 170 176 181 189 195 201 210 214 220 227 247 266 278 298 309 303 282 275 269 269 274 279 282 286 283 278 275
125 181 220 210 190 191 200 174 161 103 92 85 87 109 137 149 153 156 160 164 165 169 175 174 173 186 193 203 210 231 241 248 256 268 286 302 307 311 316 303 303 292 288 290 292 292 291 286 281
177 206 228 232 204 187 191 214 155 131 141 160 153 155 157 160 165 169 174 172 172 168 161 160 157 163 169 191 161 184 221 248 300 298 281 322 356 360 357 349 331 317 306 306 304 304 301 286 272
200 252 230 219 230 185 184 187 150 166 186 175 161 160 165 171 176 178 177 174 164 151 151 154 140 132 140 118 109 147 153 82 18 308 312 45 26 359 344 336 323 318 308 312 307 298 299 294 277
221 260 276 235 234 233 192 201 188 190 169 159 156 161 171 177 180 184 168 160 155 151 149 140 122 117 117 106 101 88 89 119 115 56 28 56 74 350 333 323 338 321 321 327 308 306 305 299 293
222 226 263 260 257 258 211 223 155 197 159 158 164 174 180 180 177 170 159 156 161 158 151 133 117 115 109 100 93 87 78 97 73 50 32 51 75 63 11 0 348 329 327 322 317 313 310 302 302
231 237 321 269 230 242 159 258 197 187 159 164 173 178 183 184 175 171 170 164 162 158 146 132 123 109 104 99 88 82 80 79 61 48 40 38 43 57 48 23 336 312 326 352 10 353 350 331 319
107 91 278 269 211 212 134 243 227 186 166 176 182 182 182 187 181 174 165 158 156 149 142 135 123 114 109 100 91 84 76 75 66 57 44 39 45 54 52 25 309 310 352 0 358 3 347 326 316
44 155 245 284 230 160 165 240 237 197 179 186 191 188 182 183 177 171 162 157 154 150 143 131 123 121 115 105 89 77 68 71 76 68 54 35 33 36 47 345 303 334 3 357 327 16 356 315 314
215 212 250 256 257 170 208 248 249 210 192 194 196 191 182 181 182 171 158 151 146 144 138 133 129 125 115 91 69 53 48 36 36 44 39 35 23 23 38 343 329 350 15 355 345 325 328 289 296
186 194 239 253 226 194 228 249 242 222 207 199 194 194 188 189 181 161 152 146 139 138 138 139 138 143 124 100 94 81 35 338 341 320 338 360 3 15 25 352 342 350 354 291 303 342 347 327 347
182 221 252 277 243 204 251 257 244 211 207 198 192 191 190 180 167 163 155 152 151 152 150 147 149 155 148 145 163 178 184 250 270 307 327 318 332 343 342 354 327 331 344 342 359 60 57 350 48
236 221 228 237 306 270 257 311 264 235 213 203 198 190 186 181 176 170 163 162 157 157 159 157 160 159 154 141 109 66 48 23 1 335 320 302 295 305 309 302 297 306 188 241 254 174 134 80 350
231 238 230 234 64 296 162 273 284 230 195 201 202 192 185 183 175 170 167 166 167 167 160 154 160 158 155 142 126 125 132 193 248 257 278 298 300 301 292 287 279 272 238 238 249 185 162 135 74
216 227 210 217 126 348 345 144 293 225 201 214 210 197 187 180 174 172 174 174 171 166 159 156 155 158 159 148 146 142 154 217 259 286 310 313 308 304 301 291 289 276 251 241 241 195 167 159 162
156 58 33 43 67 349 268 155 271 234 213 204 204 195 182 174 172 172 171 164 164 161 155 154 153 162 164 155 154 157 171 194 232 299 309 309 305 309 315 311 306 281 251 237 217 200 177 174 165
81 83 38 14 14 274 277 155 249 254 226 193 188 187 177 170 167 166 165 168 168 167 164 160 158 167 175 167 171 177 186 187 202 232 246 271 288 293 300 309 299 285 254 232 188 166 178 171 165
151 130 144 167 240 294 347 263 271 287 233 168 168 168 167 172 174 176 177 176 177 174 169 166 168 174 180 177 185 190 193 189 212 227 229 245 252 264 286 299 293 296 287 281 148 158 200 185 180
125 154 163 136 131 351 324 313 322 2 63 138 156 162 175 182 183 182 181 181 179 177 178 176 175 178 184 183 181 188 195 194 214 235 240 253 263 279 308 326 322 336 354 23 93 89 155 147 177
148 148 97 103 115 11 330 286 240 239 221 195 183 186 192 189 187 185 184 184 184 184 183 179 178 182 185 183 183 187 196 203 211 214 254 271 283 308 349 354 359 357 7 43 67 44 56 100 81
102 91 103 113 144 141 270 278 239 218 214 205 206 201 195 194 192 189 190 188 184 181 179 181 185 182 183 185 187 182 195 203 195 203 242 257 267 279 15 25 30 20 16 39 64 41 62 93 50
169 163 139 134 224 154 165 269 280 239 226 208 214 212 204 197 194 189 185 180 180 184 185 187 187 186 188 185 179 183 187 186 191 221 247 248 248 261 224 113 47 24 20 46 102 358 58 116 143
Height
1508 1509 1510 1512 1514 1518 1517 1509 1504 1502 1500 1499 1497 1498 1500 1504 1507 1514 1511 1511 1512 1514 1515 1516 1517 1518 1518 1518 1518 1518 1518 1518 1518 1518 1518 1518 1518 1519 1519 1519 1519 1519 1519 1519 1519 1519 1519 1518 1518
1508 1509 1511 1511 1515 1523 1517 1507 1503 1499 1498 1498 1498 1499 1501 1505 1506 1508 1509 1511 1513 1514 1515 1516 1517 1518 1518 1518 1518 1518 1518 1518 1518 1517 1517 1517 1517 1518 1518 1518 1518 1518 1518 1518 1518 1518 1518 1518 1518
1508 1509 1510 1511 1515 1518 1513 1504 1500 1497 1497 1497 1499 1501 1503 1506 1507 1508 1509 1511 1513 1515 1516 1517 1517 1517 1518 1518 1518 1517 1517 1517 1517 1517 1516 1516 1516 1517 1517 1516 1517 1517 1517 1517 1517 1517 1517 1517 1517
1508 1510 1510 1513 1513 1508 1503 1500 1499 1497 1496 1497 1498 1503 1505 1507 1507 1508 1510 1512 1514 1515 1516 1517 1517 1517 1517 1517 1517 1517 1516 1516 1516 1516 1515 1515 1515 1515 1515 1515 1515 1515 1515 1515 1515 1515 1515 1516 1516
1508 1508 1511 1514 1509 1503 1499 1498 1497 1497 1497 1497 1498 1504 1507 1508 1508 1509 1511 1513 1514 1515 1516 1517 1517 1517 1517 1517 1516 1516 1516 1515 1515 1514 1514 1514 1514 1513 1513 1513 1513 1513 1513 1513 1513 1514 1514 1514 1514
1506 1507 1515 1516 1509 1503 1499 1497 1496 1496 1497 1498 1499 1504 1508 1509 1509 1510 1512 1513 1515 1515 1516 1516 1517 1517 1516 1516 1516 1516 1515 1514 1514 1513 1513 1512 1512 1512 1512 1511 1511 1511 1511 1511 1511 1511 1512 1512 1513
1506 1508 1512 1510 1508 1505 1499 1497 1496 1496 1497 1498 1499 1504 1508 1510 1510 1511 1513 1514 1515 1515 1516 1516 1516 1516 1516 1516 1515 1515 1514 1514 1513 1512 1512 1511 1511 1510 1510 1510 1509 1509 1509 1509 1509 1509 1510 1510 1511
1503 1506 1509 1508 1507 1504 1499 1497 1495 1496 1497 1499 1499 1502 1506 1509 1510 1512 1513 1514 1515 1515 1516 1516 1516 1516 1516 1515 1515 1514 1514 1513 1513 1512 1511 1510 1510 1509 1508 1508 1508 1507 1507 1507 1507 1507 1507 1508 1509
1502 1509 1511 1506 1504 1501 1497 1497 1496 1496 1496 1498 1499 1500 1502 1507 1510 1512 1513 1514 1515 1515 1516 1516 1516 1516 1515 1515 1514 1514 1513 1513 1512 1511 1510 1509 1509 1508 1507 1506 1506 1506 1505 1505 1505 1505 1505 1506 1506
1501 1509 1504 1498 1497 1497 1496 1495 1496 1497 1498 1499 1500 1502 1504 1506 1509 1510 1511 1512 1513 1514 1515 1515 1515 1515 1514 1514 1514 1513 1512 1512 1511 1510 1509 1508 1507 1507 1506 1505 1505 1504 1504 1503 1503 1503 1503 1504 1504
1498 1501 1497 1495 1494 1494 1495 1495 1495 1496 1499 1498 1499 1501 1504 1506 1508 1509 1510 1511 1513 1513 1514 1514 1514 1514 1514 1513 1513 1512 1511 1511 1510 1509 1508 1507 1506 1505 1504 1504 1503 1502 1502 1502 1501 1501 1501 1501 1502
1497 1496 1495 1494 1493 1493 1494 1494 1495 1495 1496 1497 1497 1499 1502 1505 1506 1508 1509 1511 1512 1513 1513 1514 1513 1513 1513 1512 1512 1511 1510 1509 1508 1507 1506 1506 1505 1504 1503 1502 1501 1501 1500 1500 1499 1499 1499 1500 1500
1498 1496 1494 1493 1493 1493 1493 1493 1494 1494 1495 1496 1498 1500 1502 1504 1506 1507 1509 1510 1511 1512 1513 1513 1512 1512 1512 1511 1511 1510 1509 1508 1507 1506 1505 1504 1503 1503 1502 1500 1500 1499 1498 1498 1497 1497 1497 1497 1498
1496 1495 1494 1494 1494 1493 1494 1493 1494 1493 1494 1496 1498 1499 1501 1503 1505 1507 1508 1509 1511 1511 1512 1512 1512 1511 1511 1511 1510 1509 1508 1507 1506 1505 1504 1503 1502 1501 1500 1499 1498 1497 1497 1496 1496 1495 1495 1495 1496
1495 1497 1496 1494 1493 1493 1494 1495 1493 1492 1494 1496 1497 1498 1500 1502 1504 1505 1506 1508 1509 1510 1511 1511 1511 1510 1510 1510 1509 1508 1508 1506 1505 1504 1503 1502 1501 1499 1498 1497 1497 1496 1495 1494 1494 1494 1493 1493 1494
1496 1500 1503 1495 1492 1491 1497 1501 1491 1491 1493 1495 1496 1497 1499 1501 1502 1504 1505 1507 1508 1509 1510 1510 1510 1510 1509 1509 1508 1508 1507 1506 1504 1503 1502 1501 1499 1498 1497 1496 1495 1494 1493 1493 1492 1492 1492 1492 1492
1502 1507 1505 1497 1491 1491 1495 1497 1490 1490 1492 1493 1494 1495 1497 1499 1501 1503 1504 1505 1507 1508 1509 1509 1509 1509 1509 1508 1508 1507 1506 1505 1503 1502 1501 1499 1498 1497 1496 1494 1493 1493 1492 1491 1491 1491 1490 1490 1491
1508 1506 1503 1500 1492 1492 1496 1494 1489 1489 1490 1491 1492 1494 1496 1497 1499 1501 1503 1504 1506 1507 1508 1508 1508 1508 1508 1507 1507 1506 1505 1504 1503 1501 1500 1498 1497 1496 1494 1493 1492 1491 1490 1490 1490 1489 1489 1489 1489
1499 1501 1502 1497 1490 1492 1494 1493 1488 1487 1489 1490 1491 1492 1494 1496 1499 1501 1502 1504 1505 1506 1506 1507 1507 1507 1507 1506 1506 1505 1504 1503 1502 1501 1499 1497 1496 1494 1493 1492 1491 1490 1489 1489 1488 1488 1488 1488 1488
1497 1501 1500 1494 1488 1491 1493 1491 1486 1484 1485 1486 1487 1489 1491 1494 1497 1499 1501 1502 1504 1504 1505 1505 1506 1506 1506 1505 1505 1504 1503 1502 1501 1500 1498 1497 1495 1494 1492 1491 1490 1489 1488 1488 1487 1487 1487 1487 1488
1496 1499 1497 1495 1489 1488 1493 1494 1488 1483 1483 1484 1485 1486 1488 1490 1493 1496 1499 1501 1502 1503 1503 1504 1504 1505 1505 1504 1504 1503 1503 1502 1501 1499 1498 1496 1495 1493 1491 1490 1489 1488 1487 1487 1486 1486 1487 1487 1487
1499 1489 1489 1490 1497 1502 1496 1508 1492 1485 1484 1483 1483 1484 1486 1488 1491 1494 1496 1498 1500 1501 1502 1503 1503 1503 1503 1503 1503 1502 1502 1501 1500 1499 1497 1496 1494 1493 1491 1489 1488 1487 1486 1486 1486 1486 1486 1486 1487
1490 1484 1487 1490 1497 1503 1499 1506 1499 1486 1487 1483 1481 1482 1483 1485 1488 1491 1494 1496 1498 1500 1501 1501 1502 1502 1502 1502 1502 1502 1501 1500 1499 1498 1497 1496 1494 1492 1491 1489 1487 1486 1485 1485 1485 1485 1485 1486 1486
1483 1488 1492 1497 1504 1513 1502 1507 1503 1491 1483 1479 1479 1480 1481 1484 1487 1490 1492 1495 1497 1498 1499 1500 1500 1501 1501 1501 1501 1501 1500 1499 1499 1498 1496 1495 1494 1492 1490 1489 1487 1486 1485 1484 1484 1484 1484 1485 1485
1487 1501 1516 1518 1523 1517 1500 1502 1498 1480 1474 1474 1475 1478 1480 1483 1485 1488 1490 1493 1494 1496 1497 1498 1499 1499 1500 1500 1500 1500 1499 1499 1498 1497 1496 1495 1493 1492 1490 1489 1487 1485 1484 1483 1483 1483 1483 1484 1484
1489 1498 1517 1525 1525 1517 1502 1503 1490 1475 1471 1471 1474 1476 1479 1482 1483 1486 1488 1490 1492 1493 1495 1496 1497 1498 1498 1498 1499 1499 1499 1498 1497 1497 1496 1495 1493 1492 1490 1489 1487 1486 1484 1483 1483 1482 1482 1483 1483
1490 1497 1498 1511 1514 1519 1511 1498 1484 1475 1474 1474 1475 1477 1478 1480 1482 1483 1486 1488 1489 1491 1493 1494 1495 1496 1497 1497 1497 1497 1498 1497 1497 1496 1495 1495 1493 1492 1491 1489 1487 1486 1485 1483 1483 1482 1482 1482 1483
1483 1489 1502 1511 1521 1525 1514 1504 1499 1483 1479 1476 1476 1476 1477 1478 1480 1482 1483 1485 1487 1489 1491 1492 1493 1494 1495 1496 1496 1496 1496 1496 1496 1495 1495 1494 1493 1492 1491 1489 1488 1486 1485 1484 1483 1482 1482 1482 1482
1486 1490 1499 1510 1513 1523 1523 1512 1482 1478 1475 1475 1474 1473 1474 1476 1477 1479 1481 1483 1485 1487 1489 1490 1491 1492 1493 1494 1495 1495 1495 1495 1495 1495 1494 1494 1493 1492 1491 1489 1488 1487 1485 1484 1483 1483 1483 1482 1483
1480 1485 1495 1508 1511 1514 1519 1510 1474 1473 1471 1471 1471 1472 1472 1473 1475 1477 1479 1481 1483 1485 1486 1488 1489 1490 1491 1492 1493 1493 1494 1494 1494 1494 1493 1493 1492 1492 1491 1489 1488 1487 1486 1485 1484 1483 1483 1483 1483